BG9VZ-13 Weather Reports


time (UTC)temp
C
wind
direction
speed
KPH
gust
KPH
rain 1hr
cm
rain 24hr
cm
rain mn
cm
humidity
%
barometer
mb
20260509030605 18 0 0.0 0.0 0.00 0.00 0.00 43 775.7
20260509023606 18 0 0.0 0.0 0.00 0.00 0.00 43 776.2
20260509020607 18 0 0.0 0.0 0.00 0.00 0.00 43 776.4
20260509013609 18 0 0.0 0.0 0.00 0.00 0.00 43 776.5
20260509010610 18 0 0.0 0.0 0.00 0.00 0.00 43 776.6
20260509003610 17 0 0.0 0.0 0.00 0.00 0.00 43 776.7
20260509000612 17 0 0.0 0.0 0.00 0.00 0.00 43 776.7
20260508233613 17 0 0.0 0.0 0.00 0.00 0.00 43 776.4
20260508230614 17 0 0.0 0.0 0.00 0.00 0.00 43 776.2
20260508223615 17 0 0.0 0.0 0.00 0.00 0.00 43 775.8
20260508220616 17 0 0.0 0.0 0.00 0.00 0.00 43 775.6
20260508213617 17 0 0.0 0.0 0.00 0.00 0.00 43 775.5
20260508210618 17 0 0.0 0.0 0.00 0.00 0.00 43 775.5
20260508203620 17 0 0.0 0.0 0.00 0.00 0.00 43 775.4
20260508200621 17 0 0.0 0.0 0.00 0.00 0.00 43 775.5
20260508193621 17 0 0.0 0.0 0.00 0.00 0.00 42 775.5
20260508190623 17 0 0.0 0.0 0.00 0.00 0.00 42 775.5
20260508183624 17 0 0.0 0.0 0.00 0.00 0.00 42 775.4
20260508180625 17 0 0.0 0.0 0.00 0.00 0.00 42 775.4
20260508173626 17 0 0.0 0.0 0.00 0.00 0.00 42 775.4
20260508170627 17 0 0.0 0.0 0.00 0.00 0.00 42 775.5
20260508163628 17 0 0.0 0.0 0.00 0.00 0.00 42 775.6
20260508160629 17 0 0.0 0.0 0.00 0.00 0.00 41 775.7
20260508153630 17 0 0.0 0.0 0.00 0.00 0.00 41 775.5
20260508150631 18 0 0.0 0.0 0.00 0.00 0.00 41 775.7
20260508143632 18 0 0.0 0.0 0.00 0.00 0.00 41 775.5
20260508140633 18 0 0.0 0.0 0.00 0.00 0.00 40 775.4
20260508133635 18 0 0.0 0.0 0.00 0.00 0.00 40 774.8
20260508130636 18 0 0.0 0.0 0.00 0.00 0.00 40 774.3
20260508123637 18 0 0.0 0.0 0.00 0.00 0.00 39 774.2
20260508120638 18 0 0.0 0.0 0.00 0.00 0.00 39 773.6
20260508113639 18 0 0.0 0.0 0.00 0.00 0.00 38 773.1
20260508110640 18 0 0.0 0.0 0.00 0.00 0.00 38 772.5
20260508103641 18 0 0.0 0.0 0.00 0.00 0.00 37 771.8
20260508100642 18 0 0.0 0.0 0.00 0.00 0.00 37 771.4
20260508093642 18 0 0.0 0.0 0.00 0.00 0.00 35 770.5
20260508090643 18 0 0.0 0.0 0.00 0.00 0.00 34 770.0
20260508083644 19 0 0.0 0.0 0.00 0.00 0.00 32 770.0
20260508080645 18 0 0.0 0.0 0.00 0.00 0.00 32 770.3
20260508073646 18 0 0.0 0.0 0.00 0.00 0.00 30 770.5
20260508070647 18 0 0.0 0.0 0.00 0.00 0.00 28 770.9
20260508063648 18 0 0.0 0.0 0.00 0.00 0.00 30 771.4
20260508060649 18 0 0.0 0.0 0.00 0.00 0.00 30 771.8
20260508053650 18 0 0.0 0.0 0.00 0.00 0.00 38 772.3
20260508050651 18 0 0.0 0.0 0.00 0.00 0.00 43 772.9
20260508043652 18 0 0.0 0.0 0.00 0.00 0.00 43 773.6
20260508040653 18 0 0.0 0.0 0.00 0.00 0.00 43 774.1
20260508033654 18 0 0.0 0.0 0.00 0.00 0.00 43 774.5